weather.gov     
National Weather Service

Other Surface Observations
NWS Homepage
This page is being discontinued on March 12, 2014.
The same data is available at this site. Please update your bookmarks.
Thank you, and we apologize for the inconvenience.
Please send an email to SR-SRH.Webmaster@noaa.gov with any concerns.


Current Version
Previous Version:    01  02  03  04  05  06  07  08  09  10  11  12  13  14  15  16  17  18  19  20  21  22  23  24  25  26  27  28  29  30  
   31  32  33  34  35  36  37  38  39  40  41  42  43  44  45  46  47  48  49  50  51  52  53  54  55  56  57  58  59  60  
[Printable]
555
SXUS52 KTAE 301818
OSOTAE
OSOTAE
North Florida/South Alabama/Southwest Georgia Weather Roundup
National Weather Service Tallahassee Florida
100 PM EST FRI JAN 30 2015

Note: "fair" indicates few or no clouds below 12,000 feet with no
significant weather and/or obstructions to visibility.

!FLZ017-115-028-034-025-301900
...North Florida...

CITY           SKY/WX    TMP DP  RH WIND       PRES   REMARKS
TALLAHASSEE    MOSUNNY   60  34  37 NW12      30.25F
APALACHICOLA   SUNNY     65  37  35 N12G21    30.24F
PERRY          SUNNY     63  40  42 N14       30.22F
CROSS CITY       N/A     66  43  43 N13       30.19F
JACKSONVILLE   MOSUNNY   65  45  48 NW10G21   30.16F
$$

!FLZ112-006-005-002-011-301900
...Florida Panhandle...

CITY           SKY/WX    TMP DP  RH WIND       PRES   REMARKS
MARIANNA       SUNNY     57  32  38 N13G20    30.29F
BONIFAY        FAIR      57  32  38 N9        30.31F
PANAMA CITY NW FAIR      57  35  43 NW12G21   30.27F
TYNDALL AFB    SUNNY     58  36  44 N9        30.28F
TYND DRONE APT FAIR      60  38  44 N20       30.26F
DE FUNIAK SPR  FAIR      56  30  37 N14G21    30.30F
EGLIN AFB      MOSUNNY   58  33  37 N13       30.30F
DESTIN         MOSUNNY   57  35  43 N13       30.30F
HURLBURT       MOSUNNY   57  29  33 N15       30.29F
CRESTVIEW      SUNNY     57  32  38 N8        30.33F
PENSACOLA      MOSUNNY   55  33  43 N14G22    30.32F
$$

!ALZ063-066-301900
...South Alabama...

CITY           SKY/WX    TMP DP  RH WIND       PRES   REMARKS
DOTHAN         SUNNY     54  29  38 N10G18    30.33F
OZARK CAIRNS   SUNNY     56  28  35 N8        30.30F
FT RUCKER HELI SUNNY     55  31  39 NW12      30.30F
RUCKER HELI 3  FAIR      54  30  39 N9G16     30.33F
RUCKER HELI 2  FAIR      55  29  36 NW9       30.30F
FLORALA APT    SUNNY     57  30  35 N10G18    30.32F
ANDALUSIA      SUNNY     60  30  32 N14       30.32F
TROY           SUNNY     55  28  35 N12       30.34F
EUFALA         FAIR      55  29  36 NW9       30.29F
MOBILE         PTSUNNY   55  31  39 N14       30.35F
$$

!GAZ120>161-301900
...Southwest and South Central Georgia...

CITY           SKY/WX    TMP DP  RH WIND       PRES   REMARKS
THOMASVILLE    FAIR      57  32  38 N9G18     30.26F
BAINBRIDGE     SUNNY     59  34  38 N9        30.29F
MOODY AFB      SUNNY     57  34  41 N15       30.22F
VALDOSTA       MOSUNNY   58  34  40 N14       30.24F
MOULTRIE       SUNNY     54  34  47 NW10      30.26F
BLAKELY        SUNNY     55  32  41 NW7       30.30F
ALBANY         SUNNY     56  28  34 N10       30.29F
TIFTON         FAIR      52  30  43 NW14      30.25F
FITZGERALD     FAIR      56  25  30 NW8G17    30.27F
CORDELE        FAIR      54  27  35 NW10      30.28F
AMERICUS       FAIR      52  28  40 N9G16     30.28F
HOMERVILLE     FAIR      59  36  41 N12       30.22F
$$

!GMZ750-755-770-775-301900
...Coastal and Buoy Obs...

STATION/POSITION TIME  TEMP    WIND        PRES    VSBY  WAVE
                       AIR SEA DIR/SP/G                  HT/PER
                 (UTC) (F)     (DEG/KT/KT) (MB)    (MI)  (FT/S)
KEATON BEACH     1800   60     360/ 10/ 14 1023.2F
CEDAR KEY        1800   61     310/ 10/ 13 1022.4F
C TOWER          1800   56     360/ 15/ 16 1023.6F
APALACHICOLA BUO 1800   63 67  360/ 17/ 19 1023.1F         3/ 4
PANAMA CITY BUOY 1722   59 69   10/ 19/ 23 1024.6F         5/ 5
MOBILE BUOY      1651   53 69   30/ 19/ 21 1027.4F         6/ 6
ORANGE BCH AL BU 1800   52 62   20/ 16/ 21 1026.1F         3/ 4
$$




U.S. Dept. of Commerce
NOAA National Weather Service
1325 East West Highway
Silver Spring, MD 20910
E-mail: w-nws.webmaster@noaa.gov
Page last modified: May 16, 2007
NATIONAL WEATHER SERVICE: for Safety, for Work, for Fun - FOR LIFE